AirNav   Jet Aviation Boston
 
 625 users online  

2LA5 Reed Airfield
Iota, Louisiana, USA

GOING TO IOTA?


FAA INFORMATION EFFECTIVE 26 APRIL 2018

Location

FAA Identifier: 2LA5
Lat/Long: 30-20-39.6900N / 092-25-59.3100W
30-20.661500N / 092-25.988500W
30.3443583 / -92.4331417
(estimated)
Elevation: 30 ft. / 9 m (estimated)
Variation: 04E (1985)
From city: 3 miles NE of IOTA, LA
Time zone: UTC -5 (UTC -6 during Standard Time)
Zip code: 70543

Airport Operations

Airport use: Private use. Permission required prior to landing
Activation date: 08/1971
Control tower: no
ARTCC: HOUSTON CENTER
FSS: DE RIDDER FLIGHT SERVICE STATION
Attendance: UNATNDD
Wind indicator: yes
Segmented circle: no

Airport Communications

WX AWOS-3PT at 3R7 (14 nm SW): 121.150 (337-824-0517)

Nearby radio navigation aids

VOR radial/distance  VOR name  Freq  Var
LFTr289/24.6LAFAYETTE VORTAC109.8003E
LCHr064/36.9LAKE CHARLES VORTAC113.4007E

 
NDB name  Hdg/Dist  Freq  Var  ID
DURALDE175/13.026302EECY . -.-. -.--
OAKDALE140/22.237903ELRR .-.. .-. .-.
ABBEVILLE315/23.423002EBNZ -... -. --..

Airport Services

Airframe service: NONE
Powerplant service: NONE

Runway Information

Runway 17/35

Dimensions: 3100 x 130 ft. / 945 x 40 m
Surface: asphalt
RUNWAY 17  RUNWAY 35
Traffic pattern: leftleft
Obstructions: other, marked, 1300 ft. from runway
PLINES
other, marked, 500 ft. from runway
WIRES

Airport Ownership and Management from official FAA records

Ownership: Privately-owned
Owner: REED AIRFIELD, LLC
8351 MCCAIN RD
IOTA, LA 70543
Phone 337-783-7773
Manager: BRADLEY REED
8351 MCCAIN RD
IOTA, LA 70543
Phone 337-783-7773

Airport Operational Statistics

Aircraft based on the field: 4
Single engine airplanes: 3
Helicopters: 1
    

Instrument Procedures

There are no published instrument procedures at 2LA5.

Some nearby airports with instrument procedures:

4R7 - Eunice Airport (7 nm N)
3R7 - Jennings Airport (14 nm SW)
6R1 - Welsh Airport (21 nm W)
KOPL - St Landry Parish Airport-Ahart Field (22 nm NE)
KLFT - Lafayette Regional Airport/Paul Fournet Field (25 nm E)
 
Loc | Ops | Rwys | IFR | FBO | Links
Com | Nav | Svcs | Stats | Notes

AirNav Hotels Sweepstakes
 
Area around 2LA5 (Reed Airfield)
 
Road maps at: MapQuest Bing Google
 
Aerial photo
No photo
 
Sectional chart

 
Airport distance calculator
Flying to Reed Airfield? Find the distance to fly.

From to 2LA5

Sunrise and sunset
Times for 23-May-2018
 Local
(UTC-5)
 Zulu
(UTC)
Morning civil twilight05:4610:46
Sunrise06:1211:12
Sunset20:0101:01
Evening civil twilight20:2701:27

Current date and time
Zulu (UTC)  24-May-2018 04:56:58
Local (UTC-5)  23-May-2018 23:56:58
 
METAR
K3R7 
14nm SW 
240435Z AUTO 06003KT 10SM SCT060 25/21 A3007 RMK AO2 LTG DSNT SE T02460207
KOPL 
22nm NE 
240435Z AUTO 16005KT 7SM SCT047 25/21 A3007 RMK AO2 LTG DSNT SE S AND NW T02460205
KLFT 
24nm E 
240424Z AUTO 01003KT 6SM VCTS RA BR FEW034 BKN060 OVC080 21/19 A3010 RMK AO2 PK WND 11028/0406 LTG DSNT E-SW RAB0359 TSE18 P0008 T02060189 $
KACP 
28nm NW 
240435Z AUTO 01003KT 10SM SCT060 SCT120 23/21 A3008 RMK AO2 LTG DSNT NE AND SE T02280213
TAF
KLFT 
24nm E 
240344Z 2404/2424 VRB03KT P6SM VCTS SCT025 BKN050CB TEMPO 2404/2406 VRB15G25KT OVC025CB FM240600 00000KT P6SM SCT035 FM241600 12006KT P6SM VCTS SCT025 OVC050CB TEMPO 2420/2424 P6SM TSRA OVC025CB
NOTAMs
Click for the latest NOTAMs
NOTAMs are issued by the DoD/FAA and will open in a separate window not controlled by AirNav.

 

 
 

Would you like to see your business listed on this page?

 If your business provides an interesting product or service to pilots, flight crews, aircraft, or users of the Reed Airfield, you should consider listing it here.  To start the listing process, click on the button below
 
Add a business
 

Other Pages about Reed Airfield

Update a link
 
Copyright © AirNav, LLC. All rights reserved. Privacy Policy  Contact